Regional Weather Roundup
Issued by NWS

Home | Current Version | Previous Version | Graphics & Text | Print | Product List | Glossary Off
Versions: 1 2 3 4 5 6 7 8 9 10 11 12 13 14 15 16 17 18 19 20 21 22 23 24 25 26 27 28 29 30 31 32 33 34 35 36 37 38 39 40 41 42 43 44 45 46 47 48 49 50

993
ASUS43 KMKX 240311
RWRWI

WISCONSIN REGIONAL WEATHER ROUNDUP
NATIONAL WEATHER SERVICE MILWAUKEE/SULLIVAN WI
1000 PM CDT MON OCT 23 2017

NOTE: "FAIR" INDICATES FEW OR NO CLOUDS BELOW 12,000 FEET WITH NO
SIGNIFICANT WEATHER AND/OR OBSTRUCTIONS TO VISIBILITY.

WIZ001-002-006>008-014>016-023>028-240400-
NORTHWEST WISCONSIN

CITY           SKY/WX    TMP DP  RH WIND       PRES   REMARKS
SUPERIOR ARPT  CLOUDY    46  35  66 N21G28    29.80F
ASHLAND        CLOUDY    47  38  71 NW16G33   29.75R
HAYWARD        CLOUDY    47  38  71 NW12G21   29.76S
SIREN          CLOUDY    46  34  63 N14G25    29.82S
CUMBERLAND     CLOUDY    43  36  75 N22G31    29.78S
RICE LAKE      CLOUDY    45  39  79 NW12G23   29.78F
CHETEK         CLOUDY    46  41  85 NW14G23   29.76S
LADYSMITH      DRIZZLE   48  44  86 NW17G25   29.73S
EAU CLAIRE     NOT AVBL
MENOMONIE      CLOUDY    47  39  73 NW16G24   29.77F
NEW RICHMOND   CLOUDY    45  32  59 NW18G24   29.82S
OSCEOLA        CLOUDY    46  32  58 NW12G21   29.86S
$$

WIZ003>005-009-010-017-018-240400-
NORTH CENTRAL WISCONSIN

CITY           SKY/WX    TMP DP  RH WIND       PRES   REMARKS
MANITOWISH WTR RAIN      46  46 100 NW14G25   29.67S
ARBOR VITAE    RAIN      51  49  93 N14G21    29.65S
WOODRUFF       RAIN      51  49  93 N14G21    29.65S
RHINELANDER    LGT RAIN  48  47  96 VRB7      29.64S
EAGLE RIVER    LGT RAIN  47  46  93 N7        29.63R
LAND O LAKES   DRIZZLE   47  44  87 N5        29.66R
PHILLIPS       LGT RAIN  45  45 100 NW7       29.68F
TOMAHAWK       RAIN      46  44  91 NW8       29.66S
MEDFORD        RAIN      46  43  91 NW15G21   29.67S
MERRILL        LGT RAIN  48  47  97 N10G17    29.64S
$$

WIZ029-030-035-036-043>047-240400-
CENTRAL WISCONSIN

CITY           SKY/WX    TMP DP  RH WIND       PRES   REMARKS
WAUSAU         LGT RAIN  49  46  90 NW9G22    29.61S
MOSINEE        LGT RAIN  48  46  93 NW15G21   29.63F
MARSHFIELD     LGT RAIN  48  44  86 NW16      29.65S
STEVENS POINT  LGT RAIN  47  47 100 NW8       29.62F
WAUPACA        LGT RAIN  51  49  90 W5        29.60F
WAUTOMA        LGT RAIN N/A N/A N/A NW15      29.62F
WISC RAPIDS    LGT RAIN  49  47  93 NW9       29.64F
CAMP DOUGLAS   DRIZZLE   50  43  76 NW13      29.66F
$$

WIZ011>013-019>022-031-037>040-048>050-240400-
NORTHEAST WISCONSIN

CITY           SKY/WX    TMP DP  RH WIND       PRES   REMARKS
ANTIGO         DRIZZLE   46  45  95 NW7       29.61S
SHAWANO        CLOUDY    49  46  90 CALM      29.59F
OCONTO         CLOUDY    47  46  94 CALM      29.57F
STURGEON BAY   CLOUDY    48  46  93 CALM      29.56F
GREEN BAY      CLOUDY    49  48  97 NW5       29.57F
MANITOWOC      CLOUDY    48  46  93 W6        29.57F
APPLETON       CLOUDY    48  41  76 NW5       29.57F
CLINTONVILLE   CLOUDY    48  45  87 CALM      29.60F
OSHKOSH        CLOUDY    50  45  83 W9        29.58F
$$

WIZ032>034-041-042-053>061-240400-
SOUTHWEST WISCONSIN

CITY           SKY/WX    TMP DP  RH WIND       PRES   REMARKS
LA CROSSE      CLOUDY    52  42  69 NW21G31   29.72F
SPARTA         LGT RAIN  48  43  82 NW12G20   29.71S
VIROQUA        CLOUDY    48  42  81 NW12G20   29.71R
BOSCOBEL       CLOUDY    51  41  68 VRB3      29.72S
PRAIRIE DU CHI CLOUDY    50  40  69 W13       29.73F
PLATTEVILLE    CLEAR     48  43  84 W10       29.71S
$$

WIZ056-057-062-063-064-067-068-240400-
SOUTH CENTRAL WISCONSIN

CITY           SKY/WX    TMP DP  RH WIND       PRES   REMARKS
REEDSBURG      CLOUDY    49  43  78 W14G22    29.66S
BARABOO/DELLS  LGT RAIN  48  45  87 NW8       29.65S
LONE ROCK      CLOUDY    51  42  71 W13       29.68F
MINERAL POINT  CLOUDY    50  43  76 W10G18    29.68S
MADISON        LGT RAIN  49  46  90 W7        29.64F
MIDDLETON      CLOUDY    49  49  99 W9        29.65F
WATERTOWN      DRIZZLE   50  49  97 W9        29.61F
MONROE         RAIN      48  45  87 W13       29.66F
JANESVILLE     LGT RAIN  50  50 100 W12G17    29.65S
$$

WIZ051-052-058>065-066-070>072-240400-
SOUTHEAST WISCONSIN

CITY           SKY/WX    TMP DP  RH WIND       PRES   REMARKS
MILWAUKEE      CLOUDY    51  45  79 W5        29.58F
WAUKESHA       NOT AVBL
MILWAUKEE/TIMM CLOUDY    46  43  87 SW6       29.59F
RACINE         CLOUDY    50  46  86 W3        29.60F
BURLINGTON     CLOUDY    51  46  83 W10G16    29.61F
KENOSHA        CLOUDY    50  46  86 W9        29.59F
FOND DU LAC    LGT RAIN  51  44  77 W12       29.58F
SHEBOYGAN      CLOUDY    48  47  96 W6        29.56F
WEST BEND      CLOUDY    46  45  93 W7        29.58F
JUNEAU         RAIN      49  46  87 W3        29.61F
$$

LSZ147-162-240400-
LAKE SUPERIOR

STATION/POSITION TIME  TEMP    WIND        PRES    WAVE
                       AIR SEA DIR/SP/G            HT/PER
                 (UTC) (F)     (DEG/KT/KT) (MB)    (FT/S)
W MID LAKE BUOY  0250   51 51              1004.7S   2/ 3
DEVILS ISLAND    0300   47     330/ 24/ 28 1007.7R
PORT WING        0240          330/ 19/ 25 1009.1S
SAXON HARBOR     0247   52     320/ 23/ 25 1006.4R
$$

LMZ867-665-643>646-240400-
LAKE MICHIGAN

STATION/POSITION TIME  TEMP    WIND        PRES    WAVE
                       AIR SEA DIR/SP/G            HT/PER
                 (UTC) (F)     (DEG/KT/KT) (MB)    (FT/S)
S GREEN BAY BUOY 0300   53 58  340/  8/  8 1001.3
N MID LAKE BUOY  0250   53 56  340/ 16/ 17 1000.0F   2/ 4
NORTHPORT PIER   0240   54     350/ 11/ 12 1001.0F
KEWAUNEE LAKESHO 0248   49                 1000.5F
SHEBOYGAN LAKESH 0300   50     290/  5/  6 1001.0F
PORT WASHINGTON  0240   51     290/  1/  3 1002.7F
MILWAUKEE LAKESH 0250   52     270/  7/  8   N/A
S MID LAKE BUOY  0250   54 60  310/ 12/ 16 1001.5F   3/ 5
KENOSHA   LAKESH 0300   51     280/  6/  8 1002.0
$$

TC  - TEMPERATURE IN CELSIUS
VSB - VISIBILITY IN STATUTE MILES
WCI - WIND CHILL INDEX
HX  - HEAT INDEX





USA.gov is the U.S. government's official web portal to all federal, state and local government web resources and services.